Estación de San Felipe
Ultimos registro cada 15 minutos 85
| N° | Estación | Fecha / Hora | Temperatura | Humedad | Lluvia | Velocidad | Dirección | Radiación | Presion |
| 85 | San Felipe | 04-05-2026 21:00 | 9,5 | 65,9 | 0 | 0 | 338 | 0,6 | 937,9 |
| 84 | San Felipe | 04-05-2026 20:45 | 9,6 | 66,2 | 0 | 0 | 338 | 0,6 | 937,9 |
| 83 | San Felipe | 04-05-2026 20:30 | 10,2 | 62,6 | 0 | 0 | 338 | 0,6 | 937,9 |
| 82 | San Felipe | 04-05-2026 20:15 | 10,7 | 60,8 | 0 | 0 | 338 | 0,6 | 937,8 |
| 81 | San Felipe | 04-05-2026 20:00 | 11,6 | 57,5 | 0 | 0 | 338 | 0,6 | 937,6 |
| 80 | San Felipe | 04-05-2026 19:45 | 12,1 | 55,3 | 0 | 0 | 338 | 0,6 | 937,5 |
| 79 | San Felipe | 04-05-2026 19:30 | 12,5 | 53,9 | 0 | 0 | 338 | 0,6 | 937,5 |
| 78 | San Felipe | 04-05-2026 19:15 | 13,6 | 50,9 | 0 | 0 | 338 | 0,6 | 937,4 |
| 77 | San Felipe | 04-05-2026 19:00 | 13,9 | 48,7 | 0 | 0 | 338 | 0,6 | 937 |
| 76 | San Felipe | 04-05-2026 18:45 | 14,7 | 46,1 | 0 | 0 | 338 | 0,6 | 936,9 |
| 75 | San Felipe | 04-05-2026 18:30 | 16 | 42,4 | 0 | 0 | 338 | 0,6 | 936,7 |
| 74 | San Felipe | 04-05-2026 18:15 | 17,6 | 39,2 | 0 | 0 | 338 | 0,6 | 936,5 |
| 73 | San Felipe | 04-05-2026 18:00 | 20,1 | 34 | 0 | 0 | 336 | 1,9 | 936,4 |
| 72 | San Felipe | 04-05-2026 17:45 | 21 | 31,9 | 0 | 0 | 338 | 5,6 | 936,2 |
| 71 | San Felipe | 04-05-2026 17:30 | 22,1 | 30,1 | 0 | 0 | 340 | 9,4 | 936,2 |
| 70 | San Felipe | 04-05-2026 17:15 | 23,3 | 29,3 | 0 | 0 | 338 | 15,6 | 936,1 |
| 69 | San Felipe | 04-05-2026 17:00 | 24,5 | 27,4 | 0 | 0 | 303 | 19,4 | 935,9 |
| 68 | San Felipe | 04-05-2026 16:45 | 27,2 | 24 | 0 | 0 | 271 | 60,6 | 935,8 |
| 67 | San Felipe | 04-05-2026 16:30 | 29,1 | 22,1 | 0 | 0 | 291 | 169,4 | 935,8 |
| 66 | San Felipe | 04-05-2026 16:15 | 28,9 | 22 | 0 | 0 | 319 | 236,9 | 935,8 |
| 65 | San Felipe | 04-05-2026 16:00 | 29,6 | 22,2 | 0 | 0 | 307 | 315,6 | 935,4 |
| 64 | San Felipe | 04-05-2026 15:45 | 29,8 | 20,5 | 0 | 0 | 306 | 313,1 | 935,7 |
| 63 | San Felipe | 04-05-2026 15:30 | 29,9 | 20,4 | 0 | 0 | 321 | 356,9 | 935,9 |
| 62 | San Felipe | 04-05-2026 15:15 | 29,4 | 21,5 | 0 | 0 | 317 | 378,1 | 936 |
| 61 | San Felipe | 04-05-2026 15:00 | 29 | 20,8 | 0 | 0 | 298 | 434,4 | 936,2 |
| 60 | San Felipe | 04-05-2026 14:45 | 29,1 | 21,4 | 0 | 0 | 336 | 299,4 | 936,4 |
| 59 | San Felipe | 04-05-2026 14:30 | 29,4 | 21 | 0 | 0 | 324 | 465,6 | 936,5 |
| 58 | San Felipe | 04-05-2026 14:15 | 28,6 | 22 | 0 | 0 | 309 | 489,4 | 936,7 |
| 57 | San Felipe | 04-05-2026 14:00 | 27,5 | 23,2 | 0 | 0 | 300 | 513,1 | 936,7 |
| 56 | San Felipe | 04-05-2026 13:45 | 27,9 | 23,1 | 0 | 0 | 323 | 78,1 | 937,1 |
| 55 | San Felipe | 04-05-2026 13:30 | 28,1 | 23,4 | 0 | 0 | 310 | 55,6 | 937,2 |
| 54 | San Felipe | 04-05-2026 13:15 | 28,7 | 25,7 | 0 | 0 | 326 | 530,6 | 937,5 |
| 53 | San Felipe | 04-05-2026 13:00 | 27,8 | 24,6 | 0 | 0 | 334 | 538,1 | 937,7 |
| 52 | San Felipe | 04-05-2026 12:45 | 27,4 | 25,7 | 0 | 0 | 309 | 531,9 | 937,9 |
| 51 | San Felipe | 04-05-2026 12:30 | 27,2 | 25,7 | 0 | 0 | 313 | 575,6 | 937,9 |
| 50 | San Felipe | 04-05-2026 12:15 | 25,2 | 27,2 | 0 | 0 | 268 | 516,9 | 938,2 |
| 49 | San Felipe | 04-05-2026 12:00 | 24,7 | 29,2 | 0 | 0 | 275 | 448,1 | 938,3 |
| 48 | San Felipe | 04-05-2026 11:45 | 24,6 | 28,9 | 0 | 0 | 305 | 499,4 | 938,4 |
| 47 | San Felipe | 04-05-2026 11:30 | 24,7 | 30,1 | 0 | 0 | 215 | 513,1 | 938,5 |
| 46 | San Felipe | 04-05-2026 11:15 | 23,2 | 31,9 | 0 | 0 | 184 | 509,4 | 938,7 |
| 45 | San Felipe | 04-05-2026 11:00 | 22 | 34,4 | 0 | 0 | 204 | 415,6 | 939 |
| 44 | San Felipe | 04-05-2026 10:45 | 20,7 | 34,8 | 0 | 0 | 204 | 460,6 | 939,1 |
| 43 | San Felipe | 04-05-2026 10:30 | 19,6 | 37 | 0 | 0 | 204 | 369,4 | 939,2 |
| 42 | San Felipe | 04-05-2026 10:15 | 16,9 | 43,4 | 0 | 0 | 204 | 319,4 | 939,2 |
| 41 | San Felipe | 04-05-2026 10:00 | 16,1 | 45,9 | 0 | 0 | 204 | 44,4 | 939,3 |
| 40 | San Felipe | 04-05-2026 09:45 | 15,8 | 46,7 | 0 | 0 | 204 | 91,9 | 939,5 |
| 39 | San Felipe | 04-05-2026 09:30 | 14,2 | 51,3 | 0 | 0 | 205 | 69,4 | 939,3 |
| 38 | San Felipe | 04-05-2026 09:15 | 13,2 | 56,8 | 0 | 0 | 205 | 46,9 | 939,4 |
| 37 | San Felipe | 04-05-2026 09:00 | 13,3 | 58,2 | 0 | 0 | 205 | 68,1 | 939,4 |
| 36 | San Felipe | 04-05-2026 08:45 | 11,5 | 62,5 | 0 | 0 | 208 | 158,1 | 939,3 |
| 35 | San Felipe | 04-05-2026 08:30 | 10,8 | 66,8 | 0 | 0 | 209 | 154,4 | 939,4 |
| 34 | San Felipe | 04-05-2026 08:15 | 7,4 | 78,5 | 0 | 0 | 209 | 23,1 | 939,3 |
| 33 | San Felipe | 04-05-2026 08:00 | 4,2 | 81,2 | 0 | 0 | 209 | 50,6 | 939,3 |
| 32 | San Felipe | 04-05-2026 07:45 | 4,1 | 81,6 | 0 | 0 | 209 | 5,6 | 939,4 |
| 31 | San Felipe | 04-05-2026 07:30 | 3,9 | 81,7 | 0 | 0 | 209 | 3,1 | 939,2 |
| 30 | San Felipe | 04-05-2026 07:15 | 4 | 80,5 | 0 | 0 | 209 | 0,6 | 939,2 |
| 29 | San Felipe | 04-05-2026 07:00 | 4 | 80,9 | 0 | 0 | 209 | 0,6 | 939,4 |
| 28 | San Felipe | 04-05-2026 06:45 | 3,9 | 81,7 | 0 | 0 | 209 | 0,6 | 939,3 |
| 27 | San Felipe | 04-05-2026 06:30 | 3,9 | 81,4 | 0 | 0 | 209 | 0,6 | 939,3 |
| 26 | San Felipe | 04-05-2026 06:15 | 4,1 | 80,5 | 0 | 0 | 209 | 0,6 | 939,2 |
| 25 | San Felipe | 04-05-2026 06:00 | 4 | 79,3 | 0 | 0 | 209 | 0,6 | 939 |
| 24 | San Felipe | 04-05-2026 05:45 | 4,5 | 77 | 0 | 0 | 209 | 0,6 | 938,9 |
| 23 | San Felipe | 04-05-2026 05:30 | 4,7 | 75,4 | 0 | 0 | 209 | 0,6 | 938,8 |
| 22 | San Felipe | 04-05-2026 05:15 | 4,8 | 75,4 | 0 | 0 | 209 | 0,6 | 938,9 |
| 21 | San Felipe | 04-05-2026 05:00 | 5,3 | 75 | 0 | 0 | 209 | 0,6 | 938,8 |
| 20 | San Felipe | 04-05-2026 04:45 | 5,3 | 76,8 | 0 | 0 | 209 | 0,6 | 938,7 |
| 19 | San Felipe | 04-05-2026 04:30 | 4,6 | 78,2 | 0 | 0 | 209 | 0,6 | 938,7 |
| 18 | San Felipe | 04-05-2026 04:15 | 4,4 | 78,6 | 0 | 0 | 209 | 0,6 | 938,7 |
| 17 | San Felipe | 04-05-2026 04:00 | 4,7 | 77,4 | 0 | 0 | 209 | 0,6 | 938,8 |
| 16 | San Felipe | 04-05-2026 03:45 | 4,7 | 77,3 | 0 | 0 | 209 | 0,6 | 938,9 |
| 15 | San Felipe | 04-05-2026 03:30 | 4,4 | 78,3 | 0 | 0 | 209 | 0,6 | 939 |
| 14 | San Felipe | 04-05-2026 03:15 | 4,8 | 77,3 | 0 | 0 | 209 | 0,6 | 939,1 |
| 13 | San Felipe | 04-05-2026 03:00 | 4,8 | 76,6 | 0 | 0 | 209 | 0,6 | 939,4 |
| 12 | San Felipe | 04-05-2026 02:45 | 5,3 | 74,3 | 0 | 0 | 209 | 0,6 | 939,5 |
| 11 | San Felipe | 04-05-2026 02:30 | 5,5 | 74,2 | 0 | 0 | 209 | 0,6 | 939,6 |
| 10 | San Felipe | 04-05-2026 02:15 | 5,1 | 75,6 | 0 | 0 | 209 | 0,6 | 939,9 |
| 9 | San Felipe | 04-05-2026 02:00 | 5,6 | 73,9 | 0 | 0 | 209 | 0,6 | 939,9 |
| 8 | San Felipe | 04-05-2026 01:45 | 6,3 | 71,3 | 0 | 0 | 209 | 0,6 | 940 |
| 7 | San Felipe | 04-05-2026 01:30 | 5,7 | 73,7 | 0 | 0 | 209 | 0,6 | 940,1 |
| 6 | San Felipe | 04-05-2026 01:15 | 5,9 | 73,9 | 0 | 0 | 209 | 0,6 | 940,2 |
| 5 | San Felipe | 04-05-2026 01:00 | 5,6 | 73,9 | 0 | 0 | 209 | 0,6 | 940,3 |
| 4 | San Felipe | 04-05-2026 00:45 | 6,2 | 72,4 | 0 | 0 | 209 | 0,6 | 940,2 |
| 3 | San Felipe | 04-05-2026 00:30 | 6,2 | 71,6 | 0 | 0 | 209 | 0,6 | 940,4 |
| 2 | San Felipe | 04-05-2026 00:15 | 7 | 68,6 | 0 | 0 | 209 | 0,6 | 940,4 |
| 1 | San Felipe | 04-05-2026 00:00 | 7,5 | 65,2 | 0 | 0 | 209 | 0,6 | 940,5 |